Wind_Speed
2 4 3 6 6 5 4 9 6 5 10 5 8 7 10 9 8 10 7 5 4 15 20 31 35 34 33 37 40 38 36 34 32 31 25 20 19 20 16 16 15 13 12 12
4 4 6 4 2 4 2 10 8 11 8 5 8 6 9 9 14 12 10 8 9 7 11 21 29 31 34 40 37 37 38 39 36 30 26 20 19 19 19 19 16 14 11 8
5 6 5 1 8 5 6 6 4 3 4 7 6 4 4 6 5 5 5 11 13 17 17 13 26 29 31 32 38 40 39 38 32 27 25 20 21 24 23 22 17 13 9 6
4 2 2 2 3 4 5 9 3 4 4 2 2 2 7 10 12 10 14 11 12 11 12 12 18 25 32 37 39 37 38 35 30 28 31 30 30 26 26 24 19 14 9 7
8 2 3 4 6 3 7 2 3 2 4 2 5 3 6 5 11 14 16 17 13 14 16 15 20 29 29 35 37 37 35 32 27 32 30 33 33 29 25 21 19 15 12 9
7 2 5 5 3 4 5 4 7 4 3 3 5 4 5 5 11 16 13 19 17 12 8 7 19 24 26 31 32 31 32 28 28 25 27 36 34 28 27 24 20 15 12 7
3 1 3 3 4 7 4 5 3 4 4 4 3 3 8 8 10 8 11 10 15 11 12 13 12 18 22 26 29 30 26 21 24 26 28 31 30 31 30 25 19 16 12 7
4 2 3 2 3 1 6 7 5 3 3 3 3 6 6 5 10 7 2 8 7 10 12 13 15 20 25 30 32 32 32 24 23 27 25 29 28 27 22 17 14 11 9 5
4 4 5 3 3 5 7 2 4 7 3 2 4 6 7 5 4 4 7 7 9 9 12 13 15 20 26 29 33 35 33 28 25 26 26 23 20 17 15 13 10 10 6 3
7 1 2 6 2 5 7 3 2 3 4 3 4 5 4 2 2 3 4 9 8 8 9 12 18 23 27 33 32 31 31 31 28 26 24 21 17 14 13 11 9 7 4 2
5 4 4 4 3 6 1 2 1 4 4 4 1 5 5 6 6 8 9 9 12 14 15 16 19 27 32 35 35 35 34 33 31 28 26 22 19 17 14 12 11 8 5 5
8 6 4 10 15 4 4 7 6 5 4 0 4 5 4 8 7 6 9 8 10 15 17 17 23 26 27 32 35 40 39 37 36 33 29 25 21 18 17 15 14 12 10 8
7 1 2 6 5 3 7 6 4 5 4 6 5 5 4 4 6 8 9 9 12 14 13 13 13 21 27 30 33 37 40 39 37 34 30 26 23 23 22 18 18 16 13 11
8 4 7 7 7 3 3 3 4 5 3 4 6 5 6 9 9 8 7 9 10 11 10 12 11 17 25 28 28 25 29 37 38 36 32 29 25 25 23 21 19 16 13 12
6 5 4 5 3 2 1 2 2 5 5 6 8 8 10 6 8 9 7 5 5 6 7 7 8 8 17 19 21 23 33 37 39 38 33 30 26 24 24 18 15 10 7 4
2 4 1 3 2 2 2 5 5 5 3 5 5 6 4 5 7 8 3 8 6 6 3 9 9 11 15 20 25 27 33 36 37 37 34 28 26 25 21 17 9 6 5 8
4 6 4 4 4 4 5 7 6 5 3 4 5 4 5 6 7 5 6 7 7 7 6 4 8 13 17 23 31 33 36 35 35 32 27 24 23 26 19 14 9 7 6 12
6 5 3 3 3 2 7 5 4 8 5 6 8 5 9 9 5 8 6 7 7 6 6 5 2 12 21 27 31 29 28 30 29 26 22 27 27 21 16 14 10 3 11 15
2 5 2 4 3 4 5 3 5 5 1 3 6 6 6 6 6 6 5 6 6 6 8 11 14 11 3 10 15 19 21 21 22 22 20 19 19 19 13 8 5 5 10 12
6 5 4 2 4 6 7 4 2 5 2 5 6 4 6 4 3 3 6 6 8 14 15 16 19 22 23 20 25 30 28 29 26 24 23 20 16 12 9 3 7 12 8 12
3 3 5 2 2 7 8 6 2 5 6 5 6 6 4 4 4 3 8 10 14 16 17 20 24 26 23 22 28 31 28 26 24 20 12 10 7 8 3 8 10 9 12 15
7 6 3 3 2 6 5 3 7 6 4 8 5 5 8 7 9 9 10 10 11 15 17 20 24 23 23 23 27 24 24 17 9 4 6 10 4 3 7 10 12 12 12 14
1 7 6 8 6 6 4 5 5 6 6 5 8 6 8 9 8 9 10 10 12 14 15 18 22 22 19 16 14 17 13 5 1 1 2 2 7 11 10 12 13 12 14 14
2 5 4 4 2 2 5 5 5 5 9 7 6 7 9 12 10 12 10 9 11 12 14 15 16 17 18 16 15 12 8 4 1 1 5 9 11 12 12 12 13 15 17 20
5 7 6 3 1 9 8 6 9 12 12 14 13 11 12 15 11 11 10 9 12 14 16 17 17 15 12 10 8 6 4 6 8 9 11 13 14 15 17 17 17 19 19 20
5 7 5 5 9 5 3 5 7 13 10 10 15 13 12 14 13 14 9 13 16 17 15 13 11 11 8 7 6 6 8 11 12 15 17 18 19 20 20 21 24 23 22 21
Wind_Direction
318 61 240 236 214 254 359 326 277 265 251 138 195 161 180 184 191 189 157 137 196 178 175 176 181 182 181 179 181 184 180 181 179 176 165 162 156 151 151 154 150 150 147 145
30 248 252 306 341 351 336 252 293 288 222 123 153 180 176 186 202 188 166 179 191 187 164 165 175 174 177 179 184 188 187 186 187 187 183 174 167 166 163 155 158 161 160 157
162 224 232 122 283 343 304 244 251 265 62 37 97 53 190 243 302 273 222 206 186 180 177 162 172 173 170 178 184 189 190 191 191 195 180 176 168 162 165 166 164 152 155 168
233 241 160 351 294 204 260 249 270 273 71 140 118 198 194 209 227 219 220 204 206 197 188 157 158 169 171 180 187 191 195 193 191 198 186 181 175 171 177 171 166 158 170 188
246 199 135 267 236 300 230 172 208 342 76 86 349 84 252 195 189 217 224 220 218 211 183 172 165 168 173 180 185 189 194 194 195 191 193 189 186 182 177 164 159 161 168 177
231 210 164 217 303 260 307 40 32 49 74 48 290 126 291 227 222 191 210 213 216 210 173 153 146 158 170 183 183 190 192 200 196 196 206 196 190 180 164 159 161 162 159 144
235 210 290 83 332 2 82 63 353 354 16 211 267 144 233 234 254 234 208 182 199 176 157 153 146 160 164 176 180 180 179 194 204 204 192 186 179 171 166 169 173 164 151 131
169 29 324 81 111 346 278 152 156 226 204 267 284 223 247 261 252 199 213 148 134 146 162 156 158 164 171 169 173 167 166 160 168 175 175 168 163 167 172 174 165 151 147 136
157 222 296 238 135 106 307 246 177 105 358 11 249 284 315 10 359 155 112 119 150 153 154 152 152 160 161 164 164 162 159 157 159 159 158 163 168 170 168 160 161 150 142 108
202 20 227 288 239 165 171 193 68 18 137 240 282 296 250 325 268 244 165 172 175 150 149 158 162 167 166 166 165 167 168 170 172 170 170 171 173 175 173 171 166 176 178 230
129 121 297 297 200 214 48 247 128 122 140 170 178 275 231 220 217 222 234 200 175 174 175 176 177 176 173 170 170 174 177 179 181 183 182 182 179 178 182 185 188 201 213 284
195 144 169 209 223 313 213 228 146 121 229 124 150 264 239 224 207 213 240 207 189 187 186 185 181 176 178 179 177 181 186 188 191 188 185 188 185 187 190 195 199 209 224 236
176 183 68 343 321 273 209 195 179 112 88 193 140 259 289 268 267 201 205 204 198 195 192 188 175 182 186 189 186 185 188 190 191 188 187 186 188 191 194 200 205 208 216 229
128 136 162 188 205 187 239 228 157 130 113 184 214 243 269 260 240 237 202 198 202 202 187 190 188 195 196 196 191 184 181 193 193 188 187 189 194 197 201 207 206 204 215 224
140 168 156 195 196 173 179 305 259 170 193 159 241 207 244 230 239 211 210 131 160 181 180 192 196 201 195 191 190 184 191 196 194 193 191 196 200 204 203 192 182 190 187 228
39 190 176 207 73 63 218 263 265 264 205 231 256 255 301 52 38 45 74 123 113 98 134 200 175 170 183 184 182 186 196 198 197 196 197 198 201 202 179 158 137 109 48 331
124 135 116 234 6 9 351 233 216 234 222 184 210 233 118 56 58 39 45 76 77 77 68 126 182 188 184 184 191 196 201 200 196 194 192 196 193 157 139 124 102 67 333 291
133 106 102 187 39 26 240 283 218 105 35 86 99 94 105 114 100 67 38 88 75 68 60 63 167 196 202 206 205 201 195 191 185 179 170 154 144 133 121 105 86 4 293 288
115 121 101 136 186 293 298 240 176 140 31 334 122 119 132 129 75 33 67 67 74 65 50 55 53 56 105 204 186 163 147 143 131 112 111 117 110 99 79 63 7 291 280 302
67 68 117 132 140 201 238 248 161 106 138 191 137 125 143 128 85 248 66 95 76 66 58 62 68 72 77 93 129 116 97 96 89 93 98 92 81 51 19 334 268 279 293 291
45 19 143 114 192 286 246 244 82 109 223 153 127 135 143 111 175 131 100 73 77 77 70 75 74 72 73 86 99 90 89 90 101 93 71 36 341 309 286 260 271 275 291 300
158 141 179 104 75 274 199 113 158 200 154 140 131 125 98 102 91 93 89 84 78 76 73 77 80 80 91 96 94 94 101 113 111 63 333 293 272 249 263 266 272 283 291 306
164 177 177 174 211 229 233 172 129 146 139 138 124 138 126 114 107 103 92 83 77 78 79 89 95 96 93 95 101 107 112 107 41 69 128 240 276 285 279 274 281 281 290 289
259 153 134 99 336 109 91 63 79 113 117 96 95 118 113 111 105 100 93 90 89 86 88 94 88 85 87 86 86 93 99 96 66 331 299 297 294 293 288 282 279 282 282 287
195 140 155 96 41 80 36 65 111 99 90 85 71 78 100 105 93 100 98 91 85 85 89 93 98 98 97 94 89 73 37 354 335 322 315 310 309 305 298 291 287 285 281 282
183 168 151 211 184 129 125 107 110 105 101 100 103 85 78 97 106 105 96 102 106 102 102 100 100 94 82 60 37 15 349 338 330 321 317 314 309 306 299 293 292 288 283 281
Height
783 798 803 793 790 784 783 792 796 786 772 780 787 797 791 790 790 790 793 794 797 797 800 803 806 811 813 816 819 822 825 828 831 836 839 841 842 845 848 850 852 852 852 854
795 801 785 778 778 785 793 796 791 779 767 775 793 797 792 793 786 782 789 793 796 797 796 801 804 808 810 814 818 820 823 826 830 832 835 838 841 845 847 850 852 853 853 854
796 786 776 779 783 793 792 789 786 784 769 776 787 804 805 796 793 789 785 782 784 784 788 794 798 801 807 812 814 818 822 824 827 830 835 838 841 845 847 850 851 852 853 855
785 774 777 781 788 788 801 772 773 774 787 804 786 821 802 795 794 791 784 786 783 784 784 788 793 798 800 805 812 815 819 822 827 829 831 833 835 839 844 846 848 851 853 854
788 779 783 786 783 774 782 768 773 774 791 792 792 806 798 787 792 789 782 777 779 779 778 784 786 791 800 803 806 811 818 821 826 828 830 831 834 838 842 845 848 851 853 855
779 769 771 776 770 770 767 771 784 793 801 832 808 811 809 794 775 770 771 772 775 779 781 785 789 794 800 804 808 812 816 821 824 827 828 829 831 836 841 845 848 851 854 856
779 776 767 768 777 771 771 794 820 823 841 839 805 810 799 775 767 763 763 769 768 772 780 783 789 794 799 801 806 809 814 820 823 824 826 829 832 836 840 844 847 849 851 853
797 805 779 770 778 788 788 792 827 822 843 820 803 809 785 758 755 754 755 765 768 773 777 781 785 790 794 799 804 804 809 817 820 823 828 832 835 838 842 845 847 851 852 853
799 795 779 774 769 780 790 796 786 821 830 830 813 787 767 760 761 758 767 768 772 774 775 780 785 788 793 797 800 803 807 815 820 823 828 832 836 839 841 844 846 847 851 851
783 796 783 775 767 769 782 775 800 815 826 829 809 801 791 768 760 761 768 771 771 773 776 780 784 788 791 794 798 802 806 811 817 822 826 830 834 838 840 842 844 845 846 849
778 787 795 781 778 779 780 785 785 796 818 825 834 811 774 767 763 761 762 763 766 769 772 776 779 783 786 791 794 798 803 807 811 815 819 824 829 832 835 838 840 842 843 844
769 786 815 787 762 762 771 779 786 824 806 829 833 809 763 763 759 760 761 760 761 763 766 769 772 777 782 785 788 791 795 799 803 808 813 818 823 827 830 833 835 837 838 839
764 785 814 799 782 772 772 768 772 787 809 811 831 809 759 760 758 755 759 758 756 758 763 767 772 773 775 778 781 784 788 793 799 805 810 815 818 821 825 828 830 832 835 837
754 774 787 807 787 774 772 763 768 780 816 807 811 783 767 762 762 755 752 753 754 755 761 764 767 769 771 773 777 783 788 793 798 802 807 810 814 817 820 823 827 829 831 832
758 773 770 771 766 764 766 767 762 774 778 795 782 782 763 753 750 751 750 751 752 757 759 763 766 768 771 776 780 784 788 791 794 800 803 806 810 814 817 821 824 826 829 829
754 776 769 771 774 770 768 768 768 767 762 770 769 770 754 755 754 755 750 754 756 756 755 757 761 766 769 772 776 781 785 788 792 796 799 804 808 811 815 818 821 825 825 828
765 782 793 787 787 781 798 774 766 761 757 758 773 764 760 764 763 762 759 757 760 763 762 760 761 761 765 768 772 776 780 784 790 795 800 801 804 808 812 815 817 820 824 825
769 779 798 804 800 811 769 754 754 763 765 762 764 767 765 767 770 768 767 767 768 766 764 764 763 763 764 766 770 774 778 784 789 793 796 799 803 806 808 810 812 817 822 823
753 779 797 803 806 786 763 753 758 759 772 765 766 766 766 767 768 772 770 770 771 771 771 770 768 766 766 769 772 776 782 787 792 799 804 808 810 811 815 814 813 815 817 818
766 776 786 810 804 807 772 751 743 750 788 764 764 764 764 767 795 780 773 773 775 775 774 773 771 770 770 774 773 777 786 791 798 804 807 810 811 812 813 812 814 815 812 813
792 797 800 828 816 792 758 747 745 776 782 760 763 765 764 770 774 771 775 778 779 779 779 779 777 778 783 784 782 785 792 798 803 805 808 809 812 811 811 814 814 812 810 809
772 792 808 800 810 786 745 745 761 761 757 758 758 760 767 768 771 775 778 781 784 784 784 784 784 788 791 792 793 796 798 804 805 806 809 810 809 810 811 812 811 808 807 805
762 761 775 773 772 747 740 741 742 747 751 755 757 761 762 768 774 779 784 787 789 789 790 791 790 793 796 798 799 801 805 807 808 807 808 809 809 809 808 807 805 804 802 801
740 741 756 757 743 743 745 745 745 746 750 755 757 759 762 770 778 784 787 790 793 794 795 797 798 798 801 802 804 806 807 808 808 808 808 807 806 805 803 802 801 799 798 797
737 736 742 752 752 748 751 751 752 756 759 761 764 766 769 773 783 787 792 795 798 799 800 800 802 804 805 806 807 808 809 809 808 807 806 805 804 802 800 798 797 795 793 792
726 732 748 753 737 744 754 757 758 758 764 768 767 774 778 779 785 790 795 797 799 801 803 804 805 806 807 808 809 809 809 808 807 805 804 803 801 799 797 794 790 790 787 786